Location: Burtsch�tz
(51.0528°N, 12.1764°E)
Time: 05:32:23
(UTC+00:00)

Cosmos 1980 Rocket - Pass Details

Date: 29 October 2020
Orbit: 831 x 848 km, 71.0° (Epoch: 01 December)

Event Time Altitude Azimuth Distance (km) Brightness Sun altitude
Rises 17:31:15 0° 175° (S) 3,377 5.3 -16.3°
Reaches altitude 10° 17:33:55 10° 165° (SSE) 2,444 4.5 -16.8°
Maximum altitude 17:38:45 31° 106° (ESE) 1,437 2.9 -17.5°
Enters shadow 17:39:25 30° 92° (E) 1,463 2.9 -17.6°
